Time,TemperatureF,DewpointF,PressureIn,WindDirection,WindDirectionDegrees,WindSpeedMPH,WindSpeedGustMPH,Humidity,HourlyPrecipIn,Conditions,Clouds,dailyrainin,SoftwareType,DateUTC
2013-09-04 00:00:00,71.2,68.4,29.92,SSW,207,0.0,0.0,91,0.00,,---,0.00,VWS V14.01,2013-09-04 04:00:00,
2013-09-04 00:01:00,71.2,68.4,29.92,SSW,207,0.0,0.0,91,0.00,,---,0.00,VWS V14.01,2013-09-04 04:01:00,
2013-09-04 00:06:00,71.4,68.6,29.92,SSW,207,0.0,0.0,91,0.00,,---,0.00,VWS V14.01,2013-09-04 04:06:00,
2013-09-04 00:11:00,71.3,68.5,29.92,SSW,207,0.0,0.0,91,0.00,,---,0.00,VWS V14.01,2013-09-04 04:11:00,
2013-09-04 00:16:00,71.0,68.2,29.92,SSW,207,0.0,0.0,91,0.00,,---,0.00,VWS V14.01,2013-09-04 04:16:00,
2013-09-04 00:21:00,70.9,68.5,29.92,SSW,207,0.0,0.0,92,0.00,,---,0.00,VWS V14.01,2013-09-04 04:21:00,
2013-09-04 00:26:00,70.6,68.2,29.92,SSW,207,0.0,0.0,92,0.00,,---,0.00,VWS V14.01,2013-09-04 04:26:00,
2013-09-04 00:30:00,70.6,68.2,29.93,SSW,207,0.0,0.0,92,0.00,,---,0.00,VWS V14.01,2013-09-04 04:30:00,
2013-09-04 00:31:00,70.5,68.4,29.93,SSW,207,0.0,0.0,93,0.00,,---,0.00,VWS V14.01,2013-09-04 04:31:00,
2013-09-04 00:36:00,70.4,68.3,29.93,SSW,207,0.0,0.0,93,0.00,,---,0.00,VWS V14.01,2013-09-04 04:36:00,
2013-09-04 00:41:00,70.3,68.2,29.93,SSW,207,0.0,0.0,93,0.00,,---,0.00,VWS V14.01,2013-09-04 04:41:00,
2013-09-04 00:46:00,70.1,68.0,29.93,SSW,207,0.0,0.0,93,0.00,,---,0.00,VWS V14.01,2013-09-04 04:46:00,
2013-09-04 00:51:00,70.1,68.3,29.93,SSW,207,0.0,0.0,94,0.00,,---,0.00,VWS V14.01,2013-09-04 04:51:00,
2013-09-04 00:56:00,70.1,68.6,29.93,SSW,207,0.0,0.0,95,0.00,,---,0.00,VWS V14.01,2013-09-04 04:56:00,
2013-09-04 01:00:00,70.1,68.6,29.93,SSW,207,0.0,0.0,95,0.00,,---,0.00,VWS V14.01,2013-09-04 05:00:00,
2013-09-04 01:01:00,69.9,68.1,29.93,SSW,207,0.0,0.0,94,0.00,,---,0.00,VWS V14.01,2013-09-04 05:01:00,
2013-09-04 01:06:00,69.9,68.4,29.93,SSW,207,0.0,0.0,95,0.00,,---,0.00,VWS V14.01,2013-09-04 05:06:00,
2013-09-04 01:11:00,70.0,68.5,29.93,SSW,207,0.0,0.0,95,0.00,,---,0.00,VWS V14.01,2013-09-04 05:11:00,
2013-09-04 01:16:00,70.0,68.5,29.93,SSW,207,0.0,0.0,95,0.00,,---,0.00,VWS V14.01,2013-09-04 05:16:00,
2013-09-04 01:21:00,70.0,68.5,29.93,SSW,207,0.0,0.0,95,0.00,,---,0.00,VWS V14.01,2013-09-04 05:21:00,
2013-09-04 01:26:00,70.0,68.5,29.93,SSW,207,0.0,0.0,95,0.00,,---,0.00,VWS V14.01,2013-09-04 05:26:00,
2013-09-04 01:30:00,69.9,68.4,29.93,SSW,207,0.0,0.0,95,0.00,,---,0.00,VWS V14.01,2013-09-04 05:30:00,
2013-09-04 01:31:00,69.9,68.4,29.93,SSW,207,0.0,0.0,95,0.00,,---,0.00,VWS V14.01,2013-09-04 05:31:00,
2013-09-04 01:36:00,69.8,68.3,29.93,SSW,207,0.0,0.0,95,0.00,,---,0.00,VWS V14.01,2013-09-04 05:36:00,
2013-09-04 01:41:00,69.8,68.6,29.93,SSW,207,0.0,0.0,96,0.00,,---,0.00,VWS V14.01,2013-09-04 05:41:00,
2013-09-04 01:46:00,69.9,68.7,29.93,SSW,207,0.0,0.0,96,0.00,,---,0.00,VWS V14.01,2013-09-04 05:46:00,
2013-09-04 01:51:00,69.9,68.7,29.93,SSW,207,0.0,0.0,96,0.00,,---,0.00,VWS V14.01,2013-09-04 05:51:00,
2013-09-04 01:56:00,69.7,68.2,29.92,SSW,207,0.0,0.0,95,0.00,,---,0.00,VWS V14.01,2013-09-04 05:56:00,
2013-09-04 02:00:00,69.7,68.2,29.92,SSW,207,0.0,0.0,95,0.00,,---,0.00,VWS V14.01,2013-09-04 06:00:00,
2013-09-04 02:01:00,69.8,68.6,29.92,SSW,207,0.0,0.0,96,0.00,,---,0.00,VWS V14.01,2013-09-04 06:01:00,
2013-09-04 02:06:00,69.8,68.6,29.92,SSW,207,0.0,0.0,96,0.00,,---,0.00,VWS V14.01,2013-09-04 06:06:00,
2013-09-04 02:11:00,70.1,68.9,29.92,SSW,207,0.0,0.0,96,0.00,,---,0.00,VWS V14.01,2013-09-04 06:11:00,
2013-09-04 02:16:00,70.2,69.0,29.92,SSW,207,0.0,0.0,96,0.00,,---,0.00,VWS V14.01,2013-09-04 06:16:00,
2013-09-04 02:21:00,70.2,69.0,29.92,SSW,207,0.0,0.0,96,0.00,,---,0.00,VWS V14.01,2013-09-04 06:21:00,
2013-09-04 02:26:00,70.0,68.5,29.92,SSW,207,0.0,0.0,95,0.00,,---,0.00,VWS V14.01,2013-09-04 06:26:00,
2013-09-04 02:30:00,70.0,68.5,29.92,SSW,207,0.0,0.0,95,0.00,,---,0.00,VWS V14.01,2013-09-04 06:30:00,
2013-09-04 02:31:00,69.9,68.4,29.92,SSW,207,0.0,0.0,95,0.00,,---,0.00,VWS V14.01,2013-09-04 06:31:00,
2013-09-04 02:36:00,69.8,68.3,29.92,SSW,207,0.0,0.0,95,0.00,,---,0.00,VWS V14.01,2013-09-04 06:36:00,
2013-09-04 02:41:00,69.6,68.1,29.92,SSW,207,0.0,0.0,95,0.00,,---,0.00,VWS V14.01,2013-09-04 06:41:00,
2013-09-04 02:46:00,69.5,68.3,29.92,SSW,207,0.0,0.0,96,0.00,,---,0.00,VWS V14.01,2013-09-04 06:46:00,
2013-09-04 02:51:00,69.5,68.3,29.92,SSW,207,0.0,0.0,96,0.00,,---,0.00,VWS V14.01,2013-09-04 06:51:00,
2013-09-04 02:56:00,69.6,68.4,29.92,SSW,207,0.0,0.0,96,0.00,,---,0.00,VWS V14.01,2013-09-04 06:56:00,
2013-09-04 03:00:00,69.6,68.4,29.92,SSW,207,0.0,0.0,96,0.00,,---,0.00,VWS V14.01,2013-09-04 07:00:00,
2013-09-04 03:01:00,69.6,68.4,29.92,SSW,207,0.0,0.0,96,0.00,,---,0.00,VWS V14.01,2013-09-04 07:01:00,
2013-09-04 03:06:00,69.5,68.3,29.92,SSW,207,0.0,0.0,96,0.00,,---,0.00,VWS V14.01,2013-09-04 07:06:00,
2013-09-04 03:11:00,69.5,68.6,29.92,SSW,207,0.0,0.0,97,0.00,,---,0.00,VWS V14.01,2013-09-04 07:11:00,
2013-09-04 03:16:00,69.4,68.5,29.92,SSW,207,0.0,0.0,97,0.00,,---,0.00,VWS V14.01,2013-09-04 07:16:00,
2013-09-04 03:21:00,69.4,68.5,29.92,SSW,207,0.0,0.0,97,0.00,,---,0.00,VWS V14.01,2013-09-04 07:21:00,
2013-09-04 03:26:00,69.3,68.4,29.92,SSW,207,0.0,0.0,97,0.00,,---,0.00,VWS V14.01,2013-09-04 07:26:00,
2013-09-04 03:30:00,69.3,68.4,29.92,SSW,207,0.0,0.0,97,0.00,,---,0.00,VWS V14.01,2013-09-04 07:30:00,
2013-09-04 03:31:00,69.2,68.3,29.92,SSW,207,0.0,0.0,97,0.00,,---,0.00,VWS V14.01,2013-09-04 07:31:00,
2013-09-04 03:36:00,69.2,68.3,29.92,SSW,207,0.0,0.0,97,0.00,,---,0.00,VWS V14.01,2013-09-04 07:36:00,
2013-09-04 03:41:00,69.2,68.3,29.92,SSW,207,0.0,0.0,97,0.00,,---,0.00,VWS V14.01,2013-09-04 07:41:00,
2013-09-04 03:46:00,69.1,68.2,29.92,SSW,207,0.0,0.0,97,0.00,,---,0.00,VWS V14.01,2013-09-04 07:46:00,
2013-09-04 03:51:00,69.0,68.1,29.92,SSW,207,0.0,0.0,97,0.00,,---,0.00,VWS V14.01,2013-09-04 07:51:00,
2013-09-04 03:56:00,68.9,68.0,29.92,SSW,207,0.0,0.0,97,0.00,,---,0.00,VWS V14.01,2013-09-04 07:56:00,
2013-09-04 04:00:00,69.0,68.1,29.93,SSW,207,0.0,0.0,97,0.00,,---,0.00,VWS V14.01,2013-09-04 08:00:00,
2013-09-04 04:01:00,69.0,68.1,29.92,SSW,207,0.0,0.0,97,0.00,,---,0.00,VWS V14.01,2013-09-04 08:01:00,
2013-09-04 04:06:00,69.1,68.2,29.93,SSW,207,0.0,0.0,97,0.00,,---,0.00,VWS V14.01,2013-09-04 08:06:00,
2013-09-04 04:25:00,68.7,68.0,29.93,SSW,207,0.0,0.0,97,0.00,,,0.00,weatherlink.com 1.10,2013-09-04 08:25:00,
2013-09-04 04:30:00,68.7,67.8,29.93,SSW,207,0.0,0.0,97,0.00,,---,0.00,VWS V14.01,2013-09-04 08:30:00,
2013-09-04 04:33:00,68.6,67.7,29.94,SSW,207,0.0,0.0,97,0.00,,---,0.00,VWS V14.01,2013-09-04 08:33:00,
2013-09-04 04:38:00,68.6,67.7,29.94,SSW,207,0.0,0.0,97,0.00,,---,0.00,VWS V14.01,2013-09-04 08:38:00,
2013-09-04 04:43:00,68.6,67.7,29.93,SSW,207,0.0,0.0,97,0.00,,---,0.00,VWS V14.01,2013-09-04 08:43:00,
2013-09-04 04:48:00,68.9,68.3,29.94,SSW,207,0.0,0.0,98,0.00,,---,0.00,VWS V14.01,2013-09-04 08:48:00,
2013-09-04 04:53:00,69.0,68.4,29.94,SSW,207,0.0,0.0,98,0.00,,---,0.00,VWS V14.01,2013-09-04 08:53:00,
2013-09-04 04:58:00,69.0,68.4,29.94,SSW,207,0.0,0.0,98,0.00,,---,0.00,VWS V14.01,2013-09-04 08:58:00,
2013-09-04 05:00:00,69.0,68.4,29.94,SSW,207,0.0,0.0,98,0.00,,---,0.00,VWS V14.01,2013-09-04 09:00:00,
2013-09-04 05:03:00,68.9,68.3,29.94,SSW,207,0.0,0.0,98,0.00,,---,0.00,VWS V14.01,2013-09-04 09:03:00,
2013-09-04 05:08:00,68.9,68.3,29.94,SSW,207,0.0,0.0,98,0.00,,---,0.00,VWS V14.01,2013-09-04 09:08:00,
2013-09-04 05:13:00,68.9,68.3,29.94,SSW,207,0.0,0.0,98,0.00,,---,0.00,VWS V14.01,2013-09-04 09:13:00,
2013-09-04 05:18:00,68.8,68.2,29.94,SSW,207,0.0,0.0,98,0.00,,---,0.00,VWS V14.01,2013-09-04 09:18:00,
2013-09-04 05:23:00,68.6,67.7,29.94,SSW,207,0.0,0.0,97,0.00,,---,0.00,VWS V14.01,2013-09-04 09:23:00,
2013-09-04 05:28:00,68.6,68.0,29.94,SSW,207,0.0,0.0,98,0.00,,---,0.00,VWS V14.01,2013-09-04 09:28:00,
2013-09-04 05:30:00,68.6,68.0,29.94,SSW,207,0.0,0.0,98,0.00,,---,0.00,VWS V14.01,2013-09-04 09:30:00,
2013-09-04 05:33:00,68.8,68.2,29.95,SSW,207,0.0,0.0,98,0.00,,---,0.00,VWS V14.01,2013-09-04 09:33:00,
2013-09-04 05:38:00,68.7,68.1,29.95,SSW,207,0.0,0.0,98,0.00,,---,0.00,VWS V14.01,2013-09-04 09:38:00,
2013-09-04 05:43:00,68.6,68.0,29.95,SSW,207,0.0,0.0,98,0.00,,---,0.00,VWS V14.01,2013-09-04 09:43:00,
2013-09-04 05:48:00,68.5,67.9,29.95,SSW,207,0.0,0.0,98,0.00,,---,0.00,VWS V14.01,2013-09-04 09:48:00,
2013-09-04 05:53:00,68.4,67.8,29.95,SSW,207,0.0,0.0,98,0.00,,---,0.00,VWS V14.01,2013-09-04 09:53:00,
2013-09-04 05:58:00,68.4,67.8,29.95,SSW,207,0.0,0.0,98,0.00,,---,0.00,VWS V14.01,2013-09-04 09:58:00,
2013-09-04 06:00:00,68.4,67.8,29.95,SSW,207,0.0,0.0,98,0.00,,---,0.00,VWS V14.01,2013-09-04 10:00:00,
2013-09-04 06:03:00,68.5,67.9,29.95,SSW,207,0.0,0.0,98,0.00,,---,0.00,VWS V14.01,2013-09-04 10:03:00,
2013-09-04 06:08:00,68.4,67.8,29.95,SSW,207,0.0,0.0,98,0.00,,---,0.00,VWS V14.01,2013-09-04 10:08:00,
2013-09-04 06:13:00,68.2,67.6,29.95,SSW,207,0.0,0.0,98,0.00,,---,0.00,VWS V14.01,2013-09-04 10:13:00,
2013-09-04 06:18:00,68.2,67.6,29.95,SSW,207,0.0,0.0,98,0.00,,---,0.00,VWS V14.01,2013-09-04 10:18:00,
2013-09-04 06:23:00,68.4,67.8,29.95,SSW,207,0.0,0.0,98,0.00,,---,0.00,VWS V14.01,2013-09-04 10:23:00,
2013-09-04 06:28:00,68.4,67.8,29.95,SSW,207,0.0,0.0,98,0.00,,---,0.00,VWS V14.01,2013-09-04 10:28:00,
2013-09-04 06:30:00,68.4,67.8,29.95,SSW,207,0.0,0.0,98,0.00,,---,0.00,VWS V14.01,2013-09-04 10:30:00,
2013-09-04 06:33:00,68.6,68.0,29.95,South,181,0.0,0.0,98,0.00,,---,0.00,VWS V14.01,2013-09-04 10:33:00,
2013-09-04 06:38:00,68.7,68.1,29.96,South,181,0.0,0.0,98,0.00,,---,0.00,VWS V14.01,2013-09-04 10:38:00,
2013-09-04 06:43:00,68.7,68.1,29.95,South,181,0.0,0.0,98,0.00,,---,0.00,VWS V14.01,2013-09-04 10:43:00,
2013-09-04 06:48:00,68.8,68.2,29.96,South,181,0.0,0.0,98,0.00,,---,0.00,VWS V14.01,2013-09-04 10:48:00,
2013-09-04 06:53:00,69.0,68.4,29.96,South,181,0.0,0.0,98,0.00,,---,0.00,VWS V14.01,2013-09-04 10:53:00,
2013-09-04 06:58:00,68.9,68.3,29.96,South,181,0.0,0.0,98,0.00,,---,0.00,VWS V14.01,2013-09-04 10:58:00,
2013-09-04 07:00:00,69.0,68.4,29.96,South,181,0.0,0.0,98,0.00,,---,0.00,VWS V14.01,2013-09-04 11:00:00,
2013-09-04 07:03:00,68.9,68.3,29.97,South,181,0.0,0.0,98,0.00,,---,0.00,VWS V14.01,2013-09-04 11:03:00,
2013-09-04 07:08:00,68.9,68.3,29.97,South,181,0.0,0.0,98,0.00,,---,0.00,VWS V14.01,2013-09-04 11:08:00,
2013-09-04 07:13:00,68.9,68.3,29.97,South,181,0.0,0.0,98,0.00,,---,0.00,VWS V14.01,2013-09-04 11:13:00,
2013-09-04 07:18:00,69.0,68.4,29.97,South,181,0.0,0.0,98,0.00,,---,0.00,VWS V14.01,2013-09-04 11:18:00,
2013-09-04 07:23:00,69.1,68.5,29.98,South,181,0.0,0.0,98,0.00,,---,0.00,VWS V14.01,2013-09-04 11:23:00,
2013-09-04 07:28:00,69.2,68.6,29.98,South,181,0.0,0.0,98,0.00,,---,0.00,VWS V14.01,2013-09-04 11:28:00,
2013-09-04 07:30:00,69.2,68.6,29.98,South,181,0.0,0.0,98,0.00,,---,0.00,VWS V14.01,2013-09-04 11:30:00,
2013-09-04 07:33:00,69.4,68.8,29.99,SE,143,0.0,1.0,98,0.00,,---,0.00,VWS V14.01,2013-09-04 11:33:00,
2013-09-04 07:38:00,69.7,69.1,29.99,SE,143,0.0,1.0,98,0.00,,---,0.00,VWS V14.01,2013-09-04 11:38:00,
2013-09-04 07:43:00,70.1,69.8,29.99,NNE,32,0.0,2.0,99,0.00,,---,0.00,VWS V14.01,2013-09-04 11:43:00,
2013-09-04 07:48:00,70.4,69.8,29.99,NE,48,0.0,2.0,98,0.00,,---,0.00,VWS V14.01,2013-09-04 11:48:00,
2013-09-04 07:53:00,70.6,70.0,29.99,NNE,30,0.0,2.0,98,0.00,,---,0.00,VWS V14.01,2013-09-04 11:53:00,
2013-09-04 07:58:00,70.9,70.3,29.99,NNE,31,1.0,1.0,98,0.00,,---,0.00,VWS V14.01,2013-09-04 11:58:00,
2013-09-04 08:00:00,70.9,70.3,29.99,NNE,30,0.0,2.0,98,0.00,,---,0.00,VWS V14.01,2013-09-04 12:00:00,
2013-09-04 08:03:00,71.3,70.7,29.99,NE,38,0.0,1.0,98,0.00,,---,0.00,VWS V14.01,2013-09-04 12:03:00,
2013-09-04 08:08:00,71.6,70.4,29.99,NE,40,0.0,3.0,96,0.00,,---,0.00,VWS V14.01,2013-09-04 12:08:00,
2013-09-04 08:13:00,72.0,70.5,30.00,NE,43,2.0,4.0,95,0.00,,---,0.00,VWS V14.01,2013-09-04 12:13:00,
2013-09-04 08:18:00,72.2,70.4,30.00,ENE,60,1.0,4.0,94,0.00,,---,0.00,VWS V14.01,2013-09-04 12:18:00,
2013-09-04 08:23:00,72.5,70.4,30.00,NE,46,2.0,4.0,93,0.00,,---,0.00,VWS V14.01,2013-09-04 12:23:00,
2013-09-04 08:28:00,72.7,70.2,30.00,NE,48,1.0,3.0,92,0.00,,---,0.00,VWS V14.01,2013-09-04 12:28:00,
2013-09-04 08:30:00,72.7,70.6,30.00,NE,49,3.0,5.0,93,0.00,,---,0.00,VWS V14.01,2013-09-04 12:30:00,
2013-09-04 08:33:00,73.0,70.2,30.00,NE,53,0.0,4.0,91,0.00,,---,0.00,VWS V14.01,2013-09-04 12:33:00,
2013-09-04 08:38:00,73.2,70.4,30.01,NNE,23,2.0,6.0,91,0.00,,---,0.00,VWS V14.01,2013-09-04 12:38:00,
2013-09-04 08:43:00,73.5,70.7,30.01,NE,42,1.0,6.0,91,0.00,,---,0.00,VWS V14.01,2013-09-04 12:43:00,
2013-09-04 08:48:00,74.0,70.9,30.01,NE,37,1.0,6.0,90,0.00,,---,0.00,VWS V14.01,2013-09-04 12:48:00,
2013-09-04 08:53:00,74.4,70.9,30.01,NNE,31,0.0,6.0,89,0.00,,---,0.00,VWS V14.01,2013-09-04 12:53:00,
2013-09-04 08:58:00,74.8,71.0,30.01,NE,41,0.0,2.0,88,0.00,,---,0.00,VWS V14.01,2013-09-04 12:58:00,
2013-09-04 09:00:00,74.7,70.9,30.01,NE,44,2.0,6.0,88,0.00,,---,0.00,VWS V14.01,2013-09-04 13:00:00,
2013-09-04 09:03:00,75.2,71.4,30.01,NNE,33,1.0,3.0,88,0.00,,---,0.00,VWS V14.01,2013-09-04 13:03:00,
2013-09-04 09:08:00,75.8,71.3,30.01,NE,53,4.0,6.0,86,0.00,,---,0.00,VWS V14.01,2013-09-04 13:08:00,
2013-09-04 09:13:00,76.1,71.3,30.01,NE,53,0.0,6.0,85,0.00,,---,0.00,VWS V14.01,2013-09-04 13:13:00,
2013-09-04 09:18:00,76.6,71.1,30.01,NNE,21,0.0,6.0,83,0.00,,---,0.00,VWS V14.01,2013-09-04 13:18:00,
2013-09-04 09:23:00,77.0,70.7,30.01,WSW,237,1.0,9.0,81,0.00,,---,0.00,VWS V14.01,2013-09-04 13:23:00,
2013-09-04 09:28:00,77.5,71.2,30.02,North,9,0.0,3.0,81,0.00,,---,0.00,VWS V14.01,2013-09-04 13:28:00,
2013-09-04 09:30:00,77.4,71.1,30.01,NNE,27,0.0,9.0,81,0.00,,---,0.00,VWS V14.01,2013-09-04 13:30:00,
2013-09-04 09:33:00,78.1,71.1,30.02,NNE,31,4.0,6.0,79,0.00,,---,0.00,VWS V14.01,2013-09-04 13:33:00,
2013-09-04 09:38:00,78.4,70.6,30.02,NE,39,4.0,8.0,77,0.00,,---,0.00,VWS V14.01,2013-09-04 13:38:00,
2013-09-04 09:43:00,78.5,70.7,30.02,NE,39,1.0,8.0,77,0.00,,---,0.00,VWS V14.01,2013-09-04 13:43:00,
2013-09-04 09:48:00,79.1,71.3,30.02,NE,38,0.0,8.0,77,0.00,,---,0.00,VWS V14.01,2013-09-04 13:48:00,
2013-09-04 09:53:00,79.5,71.3,30.03,NE,41,0.0,8.0,76,0.00,,---,0.00,VWS V14.01,2013-09-04 13:53:00,
2013-09-04 09:58:00,79.8,70.8,30.03,NE,46,0.0,5.0,74,0.00,,---,0.00,VWS V14.01,2013-09-04 13:58:00,
2013-09-04 10:00:00,79.8,71.2,30.03,ENE,73,2.0,8.0,75,0.00,,---,0.00,VWS V14.01,2013-09-04 14:00:00,
2013-09-04 10:03:00,80.4,71.8,30.03,NNE,25,4.0,5.0,75,0.00,,---,0.00,VWS V14.01,2013-09-04 14:03:00,
2013-09-04 10:08:00,81.1,72.4,30.03,NNE,27,2.0,5.0,75,0.00,,---,0.00,VWS V14.01,2013-09-04 14:08:00,
2013-09-04 10:13:00,81.4,71.9,30.03,NNE,28,2.0,5.0,73,0.00,,---,0.00,VWS V14.01,2013-09-04 14:13:00,
2013-09-04 10:18:00,81.8,71.9,30.03,NNE,30,2.0,5.0,72,0.00,,---,0.00,VWS V14.01,2013-09-04 14:18:00,
2013-09-04 10:23:00,81.9,71.2,30.03,NE,45,3.0,5.0,70,0.00,,---,0.00,VWS V14.01,2013-09-04 14:23:00,
2013-09-04 10:28:00,82.4,71.6,30.03,NE,45,0.0,4.0,70,0.00,,---,0.00,VWS V14.01,2013-09-04 14:28:00,
2013-09-04 10:30:00,82.3,72.4,30.03,NE,52,4.0,5.0,72,0.00,,---,0.00,VWS V14.01,2013-09-04 14:30:00,
2013-09-04 10:33:00,82.5,72.2,30.03,NE,44,0.0,7.0,71,0.00,,---,0.00,VWS V14.01,2013-09-04 14:33:00,
2013-09-04 10:38:00,83.3,72.1,30.03,ENE,65,2.0,7.0,69,0.00,,---,0.00,VWS V14.01,2013-09-04 14:38:00,
2013-09-04 10:43:00,83.5,73.5,30.03,NE,49,0.0,7.0,72,0.00,,---,0.00,VWS V14.01,2013-09-04 14:43:00,
2013-09-04 10:48:00,83.9,72.7,30.03,ESE,120,0.0,7.0,69,0.00,,---,0.00,VWS V14.01,2013-09-04 14:48:00,
2013-09-04 10:53:00,84.5,71.9,30.03,NE,39,0.0,7.0,66,0.00,,---,0.00,VWS V14.01,2013-09-04 14:53:00,
2013-09-04 10:58:00,84.7,71.6,30.04,NE,36,1.0,4.0,65,0.00,,---,0.00,VWS V14.01,2013-09-04 14:58:00,
2013-09-04 11:00:00,84.7,72.5,30.03,ENE,60,0.0,7.0,67,0.00,,---,0.00,VWS V14.01,2013-09-04 15:00:00,
2013-09-04 11:03:00,84.9,72.7,30.04,SSW,194,0.0,4.0,67,0.00,,---,0.00,VWS V14.01,2013-09-04 15:03:00,
2013-09-04 11:08:00,85.5,72.4,30.04,SW,224,1.0,4.0,65,0.00,,---,0.00,VWS V14.01,2013-09-04 15:08:00,
2013-09-04 11:13:00,86.0,73.3,30.04,NNE,23,0.0,4.0,66,0.00,,---,0.00,VWS V14.01,2013-09-04 15:13:00,
2013-09-04 11:18:00,86.6,72.5,30.04,NE,47,2.0,4.0,63,0.00,,---,0.00,VWS V14.01,2013-09-04 15:18:00,
2013-09-04 11:23:00,86.6,73.0,30.04,SW,227,0.0,4.0,64,0.00,,---,0.00,VWS V14.01,2013-09-04 15:23:00,
2013-09-04 11:28:00,87.6,72.5,30.04,SSW,202,1.0,2.0,61,0.00,,---,0.00,VWS V14.01,2013-09-04 15:28:00,
2013-09-04 11:30:00,87.4,74.2,30.04,South,186,0.0,4.0,65,0.00,,---,0.00,VWS V14.01,2013-09-04 15:30:00,
2013-09-04 11:33:00,86.8,72.7,30.04,West,262,0.0,8.0,63,0.00,,---,0.00,VWS V14.01,2013-09-04 15:33:00,
2013-09-04 11:38:00,87.5,72.4,30.04,SW,224,1.0,8.0,61,0.00,,---,0.00,VWS V14.01,2013-09-04 15:38:00,
2013-09-04 11:43:00,87.7,71.6,30.04,NE,35,1.0,8.0,59,0.00,,---,0.00,VWS V14.01,2013-09-04 15:43:00,
2013-09-04 11:48:00,87.7,71.6,30.04,SSE,148,0.0,8.0,59,0.00,,---,0.00,VWS V14.01,2013-09-04 15:48:00,
2013-09-04 11:53:00,87.8,71.7,30.04,East,94,1.0,8.0,59,0.00,,---,0.00,VWS V14.01,2013-09-04 15:53:00,
2013-09-04 11:58:00,88.3,71.2,30.04,ENE,59,0.0,1.0,57,0.00,,---,0.00,VWS V14.01,2013-09-04 15:58:00,
2013-09-04 12:00:00,88.3,71.2,30.04,ENE,59,1.0,8.0,57,0.00,,---,0.00,VWS V14.01,2013-09-04 16:00:00,
2013-09-04 12:03:00,88.1,71.5,30.04,NNE,33,0.0,9.0,58,0.00,,---,0.00,VWS V14.01,2013-09-04 16:03:00,
2013-09-04 12:08:00,88.8,72.1,30.04,WSW,242,0.0,9.0,58,0.00,,---,0.00,VWS V14.01,2013-09-04 16:08:00,
2013-09-04 12:13:00,89.2,71.5,30.04,SSW,195,0.0,9.0,56,0.00,,---,0.00,VWS V14.01,2013-09-04 16:13:00,
2013-09-04 12:18:00,88.7,71.0,30.04,SW,231,1.0,9.0,56,0.00,,---,0.00,VWS V14.01,2013-09-04 16:18:00,
2013-09-04 12:23:00,88.3,70.6,30.04,WSW,252,0.0,9.0,56,0.00,,---,0.00,VWS V14.01,2013-09-04 16:23:00,
2013-09-04 12:28:00,88.2,71.1,30.04,SE,145,0.0,3.0,57,0.00,,---,0.00,VWS V14.01,2013-09-04 16:28:00,
2013-09-04 12:30:00,88.2,71.6,30.04,SW,236,3.0,9.0,58,0.00,,---,0.00,VWS V14.01,2013-09-04 16:30:00,
2013-09-04 12:33:00,88.9,72.7,30.04,West,276,1.0,5.0,59,0.00,,---,0.00,VWS V14.01,2013-09-04 16:33:00,
2013-09-04 12:38:00,88.5,71.3,30.04,SW,228,2.0,5.0,57,0.00,,---,0.00,VWS V14.01,2013-09-04 16:38:00,
2013-09-04 12:43:00,88.7,71.5,30.04,SW,216,0.0,5.0,57,0.00,,---,0.00,VWS V14.01,2013-09-04 16:43:00,
2013-09-04 12:48:00,88.9,72.2,30.04,NE,52,0.0,5.0,58,0.00,,---,0.00,VWS V14.01,2013-09-04 16:48:00,
2013-09-04 12:53:00,89.1,73.4,30.04,North,8,0.0,6.0,60,0.00,,---,0.00,VWS V14.01,2013-09-04 16:53:00,
2013-09-04 12:58:00,89.2,73.0,30.04,SW,224,0.0,0.0,59,0.00,,---,0.00,VWS V14.01,2013-09-04 16:58:00,
2013-09-04 13:00:00,89.1,72.9,30.04,SW,221,0.0,6.0,59,0.00,,---,0.00,VWS V14.01,2013-09-04 17:00:00,
2013-09-04 13:03:00,89.5,72.8,30.04,SW,231,2.0,5.0,58,0.00,,---,0.00,VWS V14.01,2013-09-04 17:03:00,
2013-09-04 13:08:00,89.1,71.9,30.04,SW,216,0.0,5.0,57,0.00,,---,0.00,VWS V14.01,2013-09-04 17:08:00,
2013-09-04 13:13:00,89.3,72.6,30.04,WSW,245,2.0,5.0,58,0.00,,---,0.00,VWS V14.01,2013-09-04 17:13:00,
2013-09-04 13:18:00,88.5,73.8,30.04,WSW,245,2.0,6.0,62,0.00,,---,0.00,VWS V14.01,2013-09-04 17:18:00,
2013-09-04 13:23:00,88.4,74.2,30.04,SW,217,3.0,6.0,63,0.00,,---,0.00,VWS V14.01,2013-09-04 17:23:00,
2013-09-04 13:28:00,88.9,73.2,30.04,NNE,27,2.0,4.0,60,0.00,,---,0.00,VWS V14.01,2013-09-04 17:28:00,
2013-09-04 13:30:00,88.9,73.2,30.04,WNW,290,1.0,6.0,60,0.00,,---,0.00,VWS V14.01,2013-09-04 17:30:00,
2013-09-04 13:33:00,89.5,72.8,30.04,North,2,1.0,4.0,58,0.00,,---,0.00,VWS V14.01,2013-09-04 17:33:00,
2013-09-04 13:38:00,89.3,73.6,30.04,West,272,2.0,6.0,60,0.00,,---,0.00,VWS V14.01,2013-09-04 17:38:00,
2013-09-04 13:43:00,89.5,74.8,30.04,NE,54,1.0,6.0,62,0.00,,---,0.00,VWS V14.01,2013-09-04 17:43:00,
2013-09-04 13:48:00,88.4,73.7,30.04,SW,236,0.0,7.0,62,0.00,,---,0.00,VWS V14.01,2013-09-04 17:48:00,
2013-09-04 13:53:00,88.5,73.8,30.04,SW,219,2.0,7.0,62,0.00,,---,0.00,VWS V14.01,2013-09-04 17:53:00,
2013-09-04 13:58:00,88.1,73.9,30.04,SSW,203,0.0,2.0,63,0.00,,---,0.00,VWS V14.01,2013-09-04 17:58:00,
2013-09-04 14:00:00,88.3,74.1,30.04,SW,233,2.0,7.0,63,0.00,,---,0.00,VWS V14.01,2013-09-04 18:00:00,
2013-09-04 14:03:00,88.9,74.7,30.04,West,269,0.0,2.0,63,0.00,,---,0.00,VWS V14.01,2013-09-04 18:03:00,
2013-09-04 14:08:00,88.9,73.7,30.04,NE,54,0.0,5.0,61,0.00,,---,0.00,VWS V14.01,2013-09-04 18:08:00,
2013-09-04 14:13:00,89.0,73.8,30.03,SW,214,2.0,5.0,61,0.00,,---,0.00,VWS V14.01,2013-09-04 18:13:00,
2013-09-04 14:18:00,87.7,74.5,30.03,SSE,164,0.0,7.0,65,0.00,,---,0.00,VWS V14.01,2013-09-04 18:18:00,
2013-09-04 14:23:00,88.1,73.9,30.03,NNE,30,0.0,7.0,63,0.00,,---,0.00,VWS V14.01,2013-09-04 18:23:00,
2013-09-04 14:28:00,88.2,73.1,30.03,WNW,283,1.0,4.0,61,0.00,,---,0.00,VWS V14.01,2013-09-04 18:28:00,
2013-09-04 14:30:00,88.3,73.2,30.03,SSW,209,0.0,7.0,61,0.00,,---,0.00,VWS V14.01,2013-09-04 18:30:00,
2013-09-04 14:33:00,87.4,73.3,30.03,SW,221,3.0,5.0,63,0.00,,---,0.00,VWS V14.01,2013-09-04 18:33:00,
2013-09-04 14:38:00,87.1,73.4,30.03,SSW,212,1.0,5.0,64,0.00,,---,0.00,VWS V14.01,2013-09-04 18:38:00,
2013-09-04 14:43:00,87.5,73.4,30.03,SSW,196,3.0,5.0,63,0.00,,---,0.00,VWS V14.01,2013-09-04 18:43:00,
2013-09-04 14:48:00,87.9,73.3,30.03,NE,37,0.0,5.0,62,0.00,,---,0.00,VWS V14.01,2013-09-04 18:48:00,
2013-09-04 14:53:00,88.1,72.0,30.02,South,179,4.0,6.0,59,0.00,,---,0.00,VWS V14.01,2013-09-04 18:53:00,
2013-09-04 14:58:00,87.9,72.3,30.02,ESE,113,1.0,2.0,60,0.00,,---,0.00,VWS V14.01,2013-09-04 18:58:00,
2013-09-04 15:00:00,87.9,71.8,30.02,WSW,240,2.0,6.0,59,0.00,,---,0.00,VWS V14.01,2013-09-04 19:00:00,
2013-09-04 15:03:00,88.4,71.8,30.02,WSW,240,2.0,3.0,58,0.00,,---,0.00,VWS V14.01,2013-09-04 19:03:00,
2013-09-04 15:08:00,87.7,71.1,30.02,SSW,207,1.0,5.0,58,0.00,,---,0.00,VWS V14.01,2013-09-04 19:08:00,
2013-09-04 15:13:00,87.5,72.9,30.02,NNE,32,0.0,5.0,62,0.00,,---,0.00,VWS V14.01,2013-09-04 19:13:00,
2013-09-04 15:18:00,87.9,72.3,30.02,SW,228,3.0,5.0,60,0.00,,---,0.00,VWS V14.01,2013-09-04 19:18:00,
2013-09-04 15:23:00,87.8,73.2,30.02,WSW,237,0.0,6.0,62,0.00,,---,0.00,VWS V14.01,2013-09-04 19:23:00,
2013-09-04 15:28:00,88.3,73.6,30.02,WNW,288,0.0,0.0,62,0.00,,---,0.00,VWS V14.01,2013-09-04 19:28:00,
2013-09-04 15:30:00,88.2,73.5,30.01,WNW,288,0.0,6.0,62,0.00,,---,0.00,VWS V14.01,2013-09-04 19:30:00,
2013-09-04 15:33:00,89.6,73.4,30.01,NE,39,2.0,4.0,59,0.00,,---,0.00,VWS V14.01,2013-09-04 19:33:00,
2013-09-04 15:38:00,89.5,72.8,30.01,WSW,246,2.0,4.0,58,0.00,,---,0.00,VWS V14.01,2013-09-04 19:38:00,
2013-09-04 15:43:00,88.5,72.8,30.01,East,82,2.0,5.0,60,0.00,,---,0.00,VWS V14.01,2013-09-04 19:43:00,
2013-09-04 15:48:00,88.4,72.8,30.01,SW,226,3.0,5.0,60,0.00,,---,0.00,VWS V14.01,2013-09-04 19:48:00,
2013-09-04 15:53:00,87.8,72.2,30.01,South,188,1.0,6.0,60,0.00,,---,0.00,VWS V14.01,2013-09-04 19:53:00,
2013-09-04 15:58:00,87.5,73.4,30.01,SSW,199,0.0,1.0,63,0.00,,---,0.00,VWS V14.01,2013-09-04 19:58:00,
2013-09-04 16:00:00,87.4,72.8,30.00,SSW,203,0.0,6.0,62,0.00,,---,0.00,VWS V14.01,2013-09-04 20:00:00,
2013-09-04 16:03:00,87.2,73.1,30.01,WSW,240,3.0,5.0,63,0.00,,---,0.00,VWS V14.01,2013-09-04 20:03:00,
2013-09-04 16:08:00,87.1,73.0,30.01,SW,220,4.0,5.0,63,0.00,,---,0.00,VWS V14.01,2013-09-04 20:08:00,
2013-09-04 16:13:00,87.0,72.9,30.01,West,259,0.0,5.0,63,0.00,,---,0.00,VWS V14.01,2013-09-04 20:13:00,
2013-09-04 16:18:00,87.1,73.0,30.01,ENE,58,1.0,5.0,63,0.00,,---,0.00,VWS V14.01,2013-09-04 20:18:00,
2013-09-04 16:23:00,86.8,73.6,30.01,SW,229,2.0,5.0,65,0.00,,---,0.00,VWS V14.01,2013-09-04 20:23:00,
2013-09-04 16:28:00,86.4,74.2,30.01,SW,221,0.0,2.0,67,0.00,,---,0.00,VWS V14.01,2013-09-04 20:28:00,
2013-09-04 16:30:00,86.4,73.7,30.01,SW,226,2.0,5.0,66,0.00,,---,0.00,VWS V14.01,2013-09-04 20:30:00,
2013-09-04 16:33:00,86.9,75.1,30.01,East,100,1.0,3.0,68,0.00,,---,0.00,VWS V14.01,2013-09-04 20:33:00,
2013-09-04 16:38:00,86.7,71.7,30.01,South,191,0.0,4.0,61,0.00,,---,0.00,VWS V14.01,2013-09-04 20:38:00,
2013-09-04 16:43:00,87.0,74.3,30.00,SW,218,1.0,7.0,66,0.00,,---,0.00,VWS V14.01,2013-09-04 20:43:00,
2013-09-04 16:48:00,86.9,73.7,30.00,NNE,30,4.0,7.0,65,0.00,,---,0.00,VWS V14.01,2013-09-04 20:48:00,
2013-09-04 16:53:00,87.1,74.4,30.00,SW,233,0.0,7.0,66,0.00,,---,0.00,VWS V14.01,2013-09-04 20:53:00,
2013-09-04 16:58:00,86.7,74.0,30.00,SW,231,1.0,1.0,66,0.00,,---,0.00,VWS V14.01,2013-09-04 20:58:00,
2013-09-04 17:00:00,86.8,74.1,30.00,SW,228,0.0,7.0,66,0.00,,---,0.00,VWS V14.01,2013-09-04 21:00:00,
2013-09-04 17:03:00,86.2,74.4,30.00,SW,217,1.0,4.0,68,0.00,,---,0.00,VWS V14.01,2013-09-04 21:03:00,
2013-09-04 17:08:00,85.7,73.9,30.00,West,266,2.0,5.0,68,0.00,,---,0.00,VWS V14.01,2013-09-04 21:08:00,
2013-09-04 17:13:00,85.0,74.6,30.00,SSW,203,2.0,5.0,71,0.00,,---,0.00,VWS V14.01,2013-09-04 21:13:00,
2013-09-04 17:18:00,84.9,73.6,30.00,SW,216,0.0,6.0,69,0.00,,---,0.00,VWS V14.01,2013-09-04 21:18:00,
2013-09-04 17:23:00,85.0,74.1,30.00,SSW,213,0.0,6.0,70,0.00,,---,0.00,VWS V14.01,2013-09-04 21:23:00,
2013-09-04 17:28:00,84.8,74.4,30.00,South,179,3.0,6.0,71,0.00,,---,0.00,VWS V14.01,2013-09-04 21:28:00,
2013-09-04 17:30:00,84.8,74.4,30.00,SSW,200,1.0,6.0,71,0.00,,---,0.00,VWS V14.01,2013-09-04 21:30:00,
2013-09-04 17:33:00,84.3,74.7,30.00,SW,214,1.0,6.0,73,0.00,,---,0.00,VWS V14.01,2013-09-04 21:33:00,
2013-09-04 17:38:00,84.2,74.2,30.00,WSW,243,1.0,6.0,72,0.00,,---,0.00,VWS V14.01,2013-09-04 21:38:00,
2013-09-04 17:43:00,83.7,74.5,30.00,SSW,201,3.0,6.0,74,0.00,,---,0.00,VWS V14.01,2013-09-04 21:43:00,
2013-09-04 17:48:00,83.3,74.6,30.01,SSW,212,1.0,6.0,75,0.00,,---,0.00,VWS V14.01,2013-09-04 21:48:00,
2013-09-04 17:53:00,83.1,74.4,30.01,ENE,60,0.0,6.0,75,0.00,,---,0.00,VWS V14.01,2013-09-04 21:53:00,
2013-09-04 17:58:00,82.9,74.6,30.01,SW,225,2.0,2.0,76,0.00,,---,0.00,VWS V14.01,2013-09-04 21:58:00,
2013-09-04 18:00:00,82.9,74.2,30.01,SW,215,0.0,6.0,75,0.00,,---,0.00,VWS V14.01,2013-09-04 22:00:00,
2013-09-04 18:03:00,82.9,74.9,30.01,WSW,251,0.0,3.0,77,0.00,,---,0.00,VWS V14.01,2013-09-04 22:03:00,
2013-09-04 18:08:00,83.2,75.2,30.01,SW,229,3.0,4.0,77,0.00,,---,0.00,VWS V14.01,2013-09-04 22:08:00,
2013-09-04 18:13:00,82.9,75.3,30.01,SW,221,0.0,4.0,78,0.00,,---,0.00,VWS V14.01,2013-09-04 22:13:00,
2013-09-04 18:18:00,82.5,74.9,30.01,WSW,257,0.0,4.0,78,0.00,,---,0.00,VWS V14.01,2013-09-04 22:18:00,
2013-09-04 18:23:00,82.4,74.9,30.01,SW,227,2.0,4.0,78,0.00,,---,0.00,VWS V14.01,2013-09-04 22:23:00,
2013-09-04 18:28:00,82.2,75.4,30.00,WSW,241,3.0,3.0,80,0.00,,---,0.00,VWS V14.01,2013-09-04 22:28:00,
2013-09-04 18:30:00,82.2,75.4,30.00,WSW,247,0.0,4.0,80,0.00,,---,0.00,VWS V14.01,2013-09-04 22:30:00,
2013-09-04 18:33:00,81.7,74.9,30.01,SW,230,2.0,6.0,80,0.00,,---,0.00,VWS V14.01,2013-09-04 22:33:00,
2013-09-04 18:38:00,81.4,75.0,30.01,SW,223,2.0,6.0,81,0.00,,---,0.00,VWS V14.01,2013-09-04 22:38:00,
2013-09-04 18:43:00,81.1,75.1,30.02,SW,217,0.0,6.0,82,0.00,,---,0.00,VWS V14.01,2013-09-04 22:43:00,
2013-09-04 18:48:00,80.9,74.9,30.02,SW,224,0.0,6.0,82,0.00,,---,0.00,VWS V14.01,2013-09-04 22:48:00,
2013-09-04 18:53:00,81.0,75.0,30.01,NE,41,0.0,6.0,82,0.00,,---,0.00,VWS V14.01,2013-09-04 22:53:00,
2013-09-04 18:58:00,81.1,75.1,30.01,SW,228,0.0,0.0,82,0.00,,---,0.00,VWS V14.01,2013-09-04 22:58:00,
2013-09-04 19:00:00,81.1,75.1,30.01,SW,230,0.0,6.0,82,0.00,,---,0.00,VWS V14.01,2013-09-04 23:00:00,
2013-09-04 19:03:00,80.8,75.2,30.01,WSW,240,0.0,1.0,83,0.00,,---,0.00,VWS V14.01,2013-09-04 23:03:00,
2013-09-04 19:08:00,80.8,75.2,30.01,WSW,238,0.0,1.0,83,0.00,,---,0.00,VWS V14.01,2013-09-04 23:08:00,
2013-09-04 19:13:00,80.6,75.3,30.01,WSW,243,0.0,1.0,84,0.00,,---,0.00,VWS V14.01,2013-09-04 23:13:00,
2013-09-04 19:17:00,80.3,75.0,30.01,SW,228,0.0,3.0,84,0.00,,---,0.00,VWS V14.01,2013-09-04 23:17:00,
2013-09-04 19:22:00,80.0,75.1,30.01,SW,221,0.0,3.0,85,0.00,,---,0.00,VWS V14.01,2013-09-04 23:22:00,
2013-09-04 19:27:00,79.9,75.0,30.01,SW,229,0.0,0.0,85,0.00,,---,0.00,VWS V14.01,2013-09-04 23:27:00,
2013-09-04 19:30:00,79.8,74.9,30.01,SW,221,0.0,3.0,85,0.00,,---,0.00,VWS V14.01,2013-09-04 23:30:00,
2013-09-04 19:32:00,79.6,75.1,30.02,SSW,212,0.0,1.0,86,0.00,,---,0.00,VWS V14.01,2013-09-04 23:32:00,
2013-09-04 19:37:00,79.4,74.8,30.02,SW,216,0.0,1.0,86,0.00,,---,0.00,VWS V14.01,2013-09-04 23:37:00,
2013-09-04 19:42:00,79.4,75.2,30.02,SSW,201,0.0,1.0,87,0.00,,---,0.00,VWS V14.01,2013-09-04 23:42:00,
2013-09-04 19:47:00,79.3,75.1,30.02,WSW,243,0.0,1.0,87,0.00,,---,0.00,VWS V14.01,2013-09-04 23:47:00,
2013-09-04 19:52:00,79.4,75.2,30.02,WSW,238,0.0,2.0,87,0.00,,---,0.00,VWS V14.01,2013-09-04 23:52:00,
2013-09-04 19:57:00,79.4,75.2,30.02,SW,233,1.0,1.0,87,0.00,,---,0.00,VWS V14.01,2013-09-04 23:57:00,
2013-09-04 20:00:00,79.3,75.1,30.02,SW,226,0.0,3.0,87,0.00,,---,0.00,VWS V14.01,2013-09-05 00:00:00,
2013-09-04 20:02:00,79.3,75.1,30.02,SW,219,0.0,2.0,87,0.00,,---,0.00,VWS V14.01,2013-09-05 00:02:00,
2013-09-04 20:07:00,79.3,75.1,30.02,SW,223,0.0,2.0,87,0.00,,---,0.00,VWS V14.01,2013-09-05 00:07:00,
2013-09-04 20:12:00,79.2,75.0,30.02,SW,223,0.0,2.0,87,0.00,,---,0.00,VWS V14.01,2013-09-05 00:12:00,
2013-09-04 20:17:00,79.0,74.8,30.02,SW,220,0.0,2.0,87,0.00,,---,0.00,VWS V14.01,2013-09-05 00:17:00,
2013-09-04 20:22:00,78.9,75.1,30.02,SW,220,0.0,2.0,88,0.00,,---,0.00,VWS V14.01,2013-09-05 00:22:00,
2013-09-04 20:27:00,78.7,75.2,30.02,SW,224,0.0,0.0,89,0.00,,---,0.00,VWS V14.01,2013-09-05 00:27:00,
2013-09-04 20:30:00,78.7,75.2,30.02,SW,224,0.0,2.0,89,0.00,,---,0.00,VWS V14.01,2013-09-05 00:30:00,
2013-09-04 20:32:00,78.6,75.1,30.02,SW,222,0.0,1.0,89,0.00,,---,0.00,VWS V14.01,2013-09-05 00:32:00,
2013-09-04 20:37:00,78.6,75.1,30.03,SSW,200,0.0,1.0,89,0.00,,---,0.00,VWS V14.01,2013-09-05 00:37:00,
2013-09-04 20:42:00,78.5,75.3,30.03,SSW,200,0.0,1.0,90,0.00,,---,0.00,VWS V14.01,2013-09-05 00:42:00,
2013-09-04 20:47:00,78.3,75.1,30.03,SSW,200,0.0,1.0,90,0.00,,---,0.00,VWS V14.01,2013-09-05 00:47:00,
2013-09-04 20:52:00,78.3,75.1,30.03,SSW,200,0.0,1.0,90,0.00,,---,0.00,VWS V14.01,2013-09-05 00:52:00,
2013-09-04 20:57:00,78.2,75.0,30.03,SSW,200,0.0,0.0,90,0.00,,---,0.00,VWS V14.01,2013-09-05 00:57:00,
2013-09-04 21:00:00,78.2,75.0,30.03,SSW,200,0.0,1.0,90,0.00,,---,0.00,VWS V14.01,2013-09-05 01:00:00,
2013-09-04 21:02:00,78.1,75.3,30.03,SSW,200,0.0,0.0,91,0.00,,---,0.00,VWS V14.01,2013-09-05 01:02:00,
2013-09-04 21:07:00,78.0,75.2,30.04,SSW,200,0.0,0.0,91,0.00,,---,0.00,VWS V14.01,2013-09-05 01:07:00,
2013-09-04 21:12:00,77.9,75.4,30.04,SSW,200,0.0,0.0,92,0.00,,---,0.00,VWS V14.01,2013-09-05 01:12:00,
2013-09-04 21:17:00,78.1,75.6,30.04,SW,219,0.0,0.0,92,0.00,,---,0.00,VWS V14.01,2013-09-05 01:17:00,
2013-09-04 21:22:00,78.1,75.6,30.04,SW,218,0.0,0.0,92,0.00,,---,0.00,VWS V14.01,2013-09-05 01:22:00,
2013-09-04 21:27:00,78.1,75.3,30.04,SW,218,0.0,0.0,91,0.00,,---,0.00,VWS V14.01,2013-09-05 01:27:00,
2013-09-04 21:30:00,78.1,75.3,30.04,SW,218,0.0,0.0,91,0.00,,---,0.00,VWS V14.01,2013-09-05 01:30:00,
2013-09-04 21:32:00,77.9,75.4,30.04,SW,218,0.0,0.0,92,0.00,,---,0.00,VWS V14.01,2013-09-05 01:32:00,
2013-09-04 21:37:00,77.7,75.2,30.04,SW,218,0.0,0.0,92,0.00,,---,0.00,VWS V14.01,2013-09-05 01:37:00,
2013-09-04 21:42:00,77.6,75.4,30.04,SW,218,0.0,0.0,93,0.00,,---,0.00,VWS V14.01,2013-09-05 01:42:00,
2013-09-04 21:47:00,77.6,75.4,30.04,SW,214,0.0,0.0,93,0.00,,---,0.00,VWS V14.01,2013-09-05 01:47:00,
2013-09-04 21:52:00,77.6,75.4,30.04,SW,214,0.0,0.0,93,0.00,,---,0.00,VWS V14.01,2013-09-05 01:52:00,
2013-09-04 21:57:00,77.7,75.5,30.04,SSW,199,0.0,0.0,93,0.00,,---,0.00,VWS V14.01,2013-09-05 01:57:00,
2013-09-04 22:00:00,77.7,75.5,30.04,SSW,199,0.0,1.0,93,0.00,,---,0.00,VWS V14.01,2013-09-05 02:00:00,
2013-09-04 22:02:00,77.6,75.7,30.04,SSW,199,0.0,0.0,94,0.00,,---,0.00,VWS V14.01,2013-09-05 02:02:00,
2013-09-04 22:07:00,77.6,75.4,30.04,SSW,198,0.0,0.0,93,0.00,,---,0.00,VWS V14.01,2013-09-05 02:07:00,
2013-09-04 22:12:00,77.5,75.3,30.05,SSW,199,0.0,0.0,93,0.00,,---,0.00,VWS V14.01,2013-09-05 02:12:00,
2013-09-04 22:17:00,77.4,75.5,30.05,SSW,199,0.0,0.0,94,0.00,,---,0.00,VWS V14.01,2013-09-05 02:17:00,
2013-09-04 22:22:00,77.2,75.0,30.05,SSW,198,0.0,0.0,93,0.00,,---,0.00,VWS V14.01,2013-09-05 02:22:00,
2013-09-04 22:27:00,76.9,74.7,30.05,SSW,199,0.0,0.0,93,0.00,,---,0.00,VWS V14.01,2013-09-05 02:27:00,
2013-09-04 22:30:00,76.9,74.7,30.05,SSW,199,0.0,0.0,93,0.00,,---,0.00,VWS V14.01,2013-09-05 02:30:00,
2013-09-04 22:32:00,76.9,75.1,30.05,SSW,198,0.0,0.0,94,0.00,,---,0.00,VWS V14.01,2013-09-05 02:32:00,
2013-09-04 22:37:00,76.9,75.4,30.05,SSW,198,0.0,0.0,95,0.00,,---,0.00,VWS V14.01,2013-09-05 02:37:00,
2013-09-04 22:42:00,76.8,74.9,30.05,SSW,199,0.0,0.0,94,0.00,,---,0.00,VWS V14.01,2013-09-05 02:42:00,
2013-09-04 22:47:00,76.6,74.8,30.05,SSW,199,0.0,0.0,94,0.00,,---,0.00,VWS V14.01,2013-09-05 02:47:00,
2013-09-04 22:52:00,76.4,74.6,30.05,SSW,199,0.0,0.0,94,0.00,,---,0.00,VWS V14.01,2013-09-05 02:52:00,
2013-09-04 22:57:00,76.3,74.8,30.05,SSW,199,0.0,0.0,95,0.00,,---,0.00,VWS V14.01,2013-09-05 02:57:00,
2013-09-04 23:00:00,76.3,74.8,30.05,SSW,199,0.0,0.0,95,0.00,,---,0.00,VWS V14.01,2013-09-05 03:00:00,
2013-09-04 23:02:00,76.5,75.3,30.05,SSW,199,0.0,0.0,96,0.00,,---,0.00,VWS V14.01,2013-09-05 03:02:00,
2013-09-04 23:07:00,76.3,74.8,30.05,SSW,198,0.0,0.0,95,0.00,,---,0.00,VWS V14.01,2013-09-05 03:07:00,
2013-09-04 23:12:00,76.1,74.9,30.05,SSW,199,0.0,0.0,96,0.00,,---,0.00,VWS V14.01,2013-09-05 03:12:00,
2013-09-04 23:17:00,76.2,75.0,30.05,SSW,199,0.0,0.0,96,0.00,,---,0.00,VWS V14.01,2013-09-05 03:17:00,
2013-09-04 23:22:00,76.4,75.5,30.05,SSW,199,0.0,0.0,97,0.00,,---,0.00,VWS V14.01,2013-09-05 03:22:00,
2013-09-04 23:27:00,76.6,75.4,30.05,SSW,199,0.0,0.0,96,0.00,,---,0.00,VWS V14.01,2013-09-05 03:27:00,
2013-09-04 23:30:00,76.6,75.4,30.05,SSW,199,0.0,0.0,96,0.00,,---,0.00,VWS V14.01,2013-09-05 03:30:00,
2013-09-04 23:32:00,76.4,75.2,30.05,SSW,198,0.0,0.0,96,0.00,,---,0.00,VWS V14.01,2013-09-05 03:32:00,
2013-09-04 23:37:00,76.3,75.1,30.05,SSW,199,0.0,0.0,96,0.00,,---,0.00,VWS V14.01,2013-09-05 03:37:00,
2013-09-04 23:42:00,76.1,74.6,30.05,SSW,199,0.0,0.0,95,0.00,,---,0.00,VWS V14.01,2013-09-05 03:42:00,
2013-09-04 23:47:00,75.9,74.4,30.05,SSW,199,0.0,0.0,95,0.00,,---,0.00,VWS V14.01,2013-09-05 03:47:00,
2013-09-04 23:52:00,75.7,74.2,30.05,SSW,199,0.0,0.0,95,0.00,,---,0.00,VWS V14.01,2013-09-05 03:52:00,
2013-09-04 23:57:00,75.7,74.5,30.05,SSW,199,0.0,0.0,96,0.00,,---,0.00,VWS V14.01,2013-09-05 03:57:00,